This is the latest recevied weather packets stored in our database for station/object IW1RID-3. If no packets are shown the sender has not sent any weather packets the latest 10 day(s).
| Time | Temp. | Humidity | Pressure | Rain* | Wind** | Luminosity | Snow |
|---|---|---|---|---|---|---|---|
| 1788153138 | 19.44° C | 85% | 1072.7 hPa | - | - | - | - |
| 1788151935 | 19.44° C | 85% | 1072.5 hPa | - | - | - | - |
| 1788150728 | 19.44° C | 84% | 1072.5 hPa | - | - | - | - |
| 1788149523 | 19.44° C | 85% | 1072.3 hPa | - | - | - | - |
| 1788148319 | 19.44° C | 83% | 1072.4 hPa | - | - | - | - |
| 1788147114 | 20° C | 82% | 1072.5 hPa | - | - | - | - |
| 1788145909 | 20° C | 80% | 1072.6 hPa | - | - | - | - |
| 1788144705 | 20.56° C | 79% | 1072.8 hPa | - | - | - | - |
| 1788143500 | 20° C | 82% | 1072.8 hPa | - | - | - | - |
| 1788142295 | 20° C | 82% | 1072.9 hPa | - | - | - | - |
| 1788141091 | 20° C | 82% | 1072.6 hPa | - | - | - | - |
| 1788139886 | 20.56° C | 80% | 1072.6 hPa | - | - | - | - |
| 1788138682 | 20.56° C | 78% | 1072.6 hPa | - | - | - | - |
| 1788137477 | 20.56° C | 81% | 1072.6 hPa | - | - | - | - |
| 1788136272 | 20.56° C | 80% | 1072.6 hPa | - | - | - | - |
| 1788135068 | 20.56° C | 81% | 1072.8 hPa | - | - | - | - |
| 1788133862 | 20.56° C | 82% | 1073 hPa | - | - | - | - |
| 1788132658 | 21.11° C | 80% | 1073 hPa | - | - | - | - |
| 1788131453 | 21.11° C | 81% | 1073.1 hPa | - | - | - | - |
| 1788130249 | 21.11° C | 80% | 1073.3 hPa | - | - | - | - |
| 1788129044 | 21.67° C | 79% | 1073.3 hPa | - | - | - | - |
| 1788127839 | 21.67° C | 78% | 1073.2 hPa | - | - | - | - |
| 1788126634 | 21.67° C | 78% | 1073.1 hPa | - | - | - | - |
| 1788125430 | 22.22° C | 77% | 1073 hPa | - | - | - | - |
| 1788124226 | 22.22° C | 76% | 1072.8 hPa | - | - | - | - |
* Rain since midnight (hover to see other rain measurements)
** Current wind speed in m/s (hover to see current wind gust speed)